Location: ??????
(56.0120°N, 39.1740°E)
Time: 09:10:34
(UTC+00:00)

Cosmos 1624 Rocket - Pass Details

Date: 14 April 2026
Orbit: 753 x 778 km, 74.0° (Epoch: 10 May)

Event Time Altitude Azimuth Distance (km) Brightness Sun altitude
Exits shadow 21:46:59 47° 122° (ESE) 994 4.3 -24.1°
Maximum altitude 21:47:20 48° 109° (ESE) 984 4.4 -24.1°
Drops below altitude 10° 21:52:19 10° 36° (NE) 2,293 7.3 -24.0°
Sets 21:54:44 0° 31° (NNE) 3,221 8.3 -24.0°
